Cheboygan, MI

3:28 AM EDT on October 19, 2017 (GMT -0400)
Cheboygan

Weather History for KSLH - March, 2013

Change the Weather History Date:

Sunday, March 17, 2013

  Actual Average (KMCD) Record (KMCD)
Temperature  
Mean Temperature 16 °F -  
Max Temperature 21 °F 31 °F 62 °F (2009)
Min Temperature 11 °F 18 °F -2 °F (1976)
Degree Days  
Heating Degree Days 49    
Moisture  
Dew Point 7 °F    
Average Humidity 67    
Maximum Humidity 90    
Minimum Humidity 52    
Precipitation  
Precipitation 0.00 in - - ()
Sea Level Pressure  
Sea Level Pressure 30.23 in    
Wind  
Wind Speed 9 mph (NE)    
Max Wind Speed 21 mph    
Max Gust Speed 30 mph    
Visibility 9 miles    
Events Snow    
Averages and records for this station are not official NWS values.
T = Trace of Precipitation, MM = Missing Value Source: NWS Daily Summary

Daily Weather History Graph

Daily Weather History Graph

Search for Another Location

Airport or City:

Trip Planner

Search our weather history database for the weather conditions in past years. The results will help you decide how hot, cold, wet, or windy it might be!

Date:

Astronomy

Mar. 17, 2013 Rise Set
Actual Time 7:46 AM EDT 7:46 PM EDT
Civil Twilight 7:16 AM EDT 8:16 PM EDT
Nautical Twilight 6:42 AM EDT 8:51 PM EDT
Astronomical Twilight 6:06 AM EDT 9:26 PM EDT
Moon 10:41 AM EDT (3/17) 1:10 AM EDT (3/17)
Length of Visible Light 12h 59m
Length of Day
12h 00m
Waxing Crescent, 31% of the Moon is Illuminated
Mar 17
Waxing Crescent
Mar 19
First Quarter
Mar 27
Full
Apr 3
Last Quarter
Apr 10
New

Hourly Weather History & Observations

Time (EDT) Temp. Windchill Dew Point Humidity Pressure Visibility Wind Dir Wind Speed Gust Speed Precip Events Conditions
12:15 AM 19.4 °F 11.5 °F 16.7 °F 89% 30.00 in 0.8 mi WSW 5.8 mph - N/A Snow Snow
12:35 AM 19.2 °F 11.3 °F 16.7 °F 90% 30.01 in 4.0 mi WSW 5.8 mph - N/A Snow Light Snow
12:55 AM 20.8 °F 6.8 °F 15.6 °F 80% 30.01 in 10.0 mi WNW 16.1 mph 21.9 mph N/A   Overcast
1:15 AM 21.2 °F 8.3 °F 14.9 °F 77% 30.01 in 7.0 mi WNW 13.8 mph 26.5 mph N/A   Overcast
1:35 AM 20.5 °F 5.5 °F 14.7 °F 78% 30.02 in 3.0 mi WNW 18.4 mph 28.8 mph N/A   Haze
1:55 AM 19.8 °F 3.7 °F 14.9 °F 81% 30.03 in 3.0 mi WNW 20.7 mph 27.6 mph N/A   Haze
2:15 AM 19.2 °F 3.8 °F 14.9 °F 83% 30.04 in 5.0 mi NW 18.4 mph 29.9 mph N/A Snow Light Snow
2:35 AM 18.3 °F 4.1 °F 14.0 °F 83% 30.05 in 7.0 mi NW 15.0 mph 23.0 mph N/A   Clear
2:54 AM 18.1 °F 3.9 °F 13.8 °F 83% 30.07 in 7.0 mi NW 15.0 mph 21.9 mph N/A Snow Light Snow
3:15 AM 17.6 °F 3.2 °F 11.8 °F 78% 30.09 in 7.0 mi NNW 15.0 mph 24.2 mph N/A   Overcast
3:35 AM 16.7 °F 2.0 °F 10.9 °F 78% 30.10 in 4.0 mi North 15.0 mph 24.2 mph N/A Snow Light Snow
3:54 AM 16.3 °F 4.1 °F 10.2 °F 77% 30.12 in 7.0 mi North 10.4 mph 19.6 mph N/A Snow Light Snow
4:15 AM 15.6 °F 1.8 °F 9.5 °F 77% 30.13 in 7.0 mi North 12.7 mph 17.3 mph N/A Snow Light Snow
4:35 AM 14.4 °F 3.3 °F 8.1 °F 76% 30.15 in 10.0 mi NNW 8.1 mph - N/A   Scattered Clouds
4:54 AM 13.3 °F 2.0 °F 7.7 °F 78% 30.15 in 10.0 mi NNW 8.1 mph - N/A   Scattered Clouds
5:15 AM 13.8 °F 1.8 °F 7.7 °F 77% 30.16 in 10.0 mi NNW 9.2 mph - N/A   Scattered Clouds
5:34 AM 14.0 °F 5.1 °F 8.4 °F 78% 30.17 in 10.0 mi NNW 5.8 mph - N/A   Mostly Cloudy
5:55 AM 13.6 °F 4.6 °F 8.6 °F 80% 30.18 in 7.0 mi NNW 5.8 mph - N/A Snow Light Snow
6:35 AM 12.9 °F 1.6 °F 7.7 °F 80% 30.20 in 10.0 mi North 8.1 mph - N/A   Mostly Cloudy
6:55 AM 12.7 °F 3.6 °F 7.5 °F 80% 30.21 in 7.0 mi North 5.8 mph - N/A Snow Light Snow
7:14 AM 12.6 °F 4.8 °F 7.2 °F 79% 30.23 in 10.0 mi North 4.6 mph - N/A   Mostly Cloudy
7:35 AM 11.8 °F 2.5 °F 6.4 °F 79% 30.23 in 10.0 mi North 5.8 mph - N/A   Scattered Clouds
7:55 AM 11.5 °F 2.1 °F 5.9 °F 78% 30.24 in 10.0 mi North 5.8 mph - N/A   Scattered Clouds
8:15 AM 11.1 °F 0.4 °F 5.0 °F 76% 30.25 in 10.0 mi NNE 6.9 mph - N/A   Scattered Clouds
8:35 AM 12.0 °F 1.5 °F 5.0 °F 73% 30.25 in 10.0 mi NNE 6.9 mph - N/A   Mostly Cloudy
8:55 AM 11.8 °F 0.3 °F 3.6 °F 69% 30.26 in 10.0 mi NNE 8.1 mph - N/A   Scattered Clouds
9:15 AM 12.0 °F 4.1 °F 3.2 °F 68% 30.27 in 10.0 mi NNE 4.6 mph - N/A   Clear
9:35 AM 12.2 °F 0.7 °F 3.2 °F 67% 30.28 in 10.0 mi North 8.1 mph - N/A   Clear
9:55 AM 12.9 °F 3.8 °F 3.2 °F 65% 30.28 in 10.0 mi NNE 5.8 mph - N/A   Scattered Clouds
10:15 AM 13.5 °F 4.4 °F 2.8 °F 63% 30.29 in 10.0 mi NE 5.8 mph - N/A   Scattered Clouds
10:35 AM 13.6 °F 4.6 °F 2.7 °F 62% 30.30 in 10.0 mi North 5.8 mph - N/A   Clear
10:55 AM 13.8 °F 2.7 °F 2.3 °F 60% 30.30 in 10.0 mi North 8.1 mph - N/A   Clear
11:15 AM 14.0 °F - 2.1 °F 59% 30.31 in 10.0 mi Calm Calm - N/A   Scattered Clouds
11:35 AM 14.5 °F 8.8 °F 2.1 °F 58% 30.31 in 10.0 mi East 3.5 mph - N/A   Scattered Clouds
11:55 AM 14.7 °F 9.0 °F 1.6 °F 56% 30.31 in 10.0 mi ENE 3.5 mph - N/A   Clear
12:15 PM 15.8 °F - 1.9 °F 54% 30.32 in 10.0 mi Calm Calm - N/A   Clear
12:34 PM 16.0 °F 8.8 °F 2.3 °F 55% 30.32 in 10.0 mi ENE 4.6 mph - N/A   Clear
12:55 PM 16.2 °F - 3.0 °F 56% 30.32 in 10.0 mi Calm Calm - N/A   Clear
1:14 PM 16.3 °F 9.2 °F 2.3 °F 54% 30.32 in 10.0 mi ENE 4.6 mph - N/A   Clear
1:35 PM 16.7 °F - 1.8 °F 52% 30.33 in 10.0 mi Calm Calm - N/A   Clear
1:55 PM 17.4 °F 12.1 °F 3.0 °F 53% 30.33 in 10.0 mi NNE 3.5 mph - N/A   Clear
2:14 PM 17.6 °F 10.7 °F 4.1 °F 56% 30.33 in 10.0 mi ENE 4.6 mph - N/A   Clear
2:35 PM 18.0 °F 11.1 °F 4.3 °F 55% 30.32 in 10.0 mi NE 4.6 mph - N/A   Clear
2:55 PM 18.5 °F 10.4 °F 5.0 °F 56% 30.32 in 10.0 mi ENE 5.8 mph - N/A   Clear
3:14 PM 18.5 °F 11.7 °F 5.7 °F 58% 30.30 in 10.0 mi NE 4.6 mph - N/A   Clear
3:35 PM 19.0 °F 12.3 °F 5.9 °F 57% 30.29 in 10.0 mi ENE 4.6 mph - N/A   Clear
3:55 PM 19.2 °F 10.2 °F 6.3 °F 57% 30.28 in 10.0 mi NE 6.9 mph - N/A   Clear
4:15 PM 19.4 °F 8.6 °F 6.1 °F 56% 30.28 in 10.0 mi ENE 9.2 mph - N/A   Clear
4:35 PM 19.4 °F 8.6 °F 6.6 °F 58% 30.28 in 10.0 mi ENE 9.2 mph - N/A   Clear
4:55 PM 19.4 °F 11.5 °F 4.8 °F 53% 30.28 in 10.0 mi ENE 5.8 mph - N/A   Clear
5:15 PM 19.4 °F 9.5 °F 5.5 °F 55% 30.27 in 10.0 mi ENE 8.1 mph - N/A   Clear
5:34 PM 19.8 °F 9.9 °F 6.4 °F 56% 30.27 in 10.0 mi ENE 8.1 mph - N/A   Clear
5:55 PM 19.6 °F 8.9 °F 6.3 °F 56% 30.26 in 10.0 mi East 9.2 mph - N/A   Clear
6:15 PM 19.4 °F 7.9 °F 5.0 °F 54% 30.27 in 10.0 mi ENE 10.4 mph - N/A   Clear
6:35 PM 19.0 °F 8.2 °F 5.5 °F 56% 30.26 in 10.0 mi ENE 9.2 mph - N/A   Clear
6:55 PM 18.9 °F 8.8 °F 6.1 °F 58% 30.27 in 10.0 mi ENE 8.1 mph - N/A   Clear
7:15 PM 18.5 °F 9.3 °F 5.9 °F 58% 30.26 in 10.0 mi East 6.9 mph - N/A   Clear
7:35 PM 18.0 °F 7.7 °F 5.7 °F 59% 30.26 in 10.0 mi East 8.1 mph - N/A   Clear
7:55 PM 17.6 °F 9.3 °F 5.5 °F 59% 30.26 in 10.0 mi East 5.8 mph - N/A   Clear
8:15 PM 16.5 °F 9.4 °F 5.9 °F 63% 30.26 in 10.0 mi ESE 4.6 mph - N/A   Clear
8:35 PM 15.4 °F 6.8 °F 5.9 °F 66% 30.25 in 10.0 mi ESE 5.8 mph - N/A   Clear
8:55 PM 14.2 °F 5.3 °F 5.7 °F 69% 30.25 in 10.0 mi ESE 5.8 mph - N/A   Clear
9:15 PM 13.5 °F 5.8 °F 5.0 °F 69% 30.26 in 10.0 mi East 4.6 mph - N/A   Clear
9:35 PM 13.8 °F 6.2 °F 5.4 °F 69% 30.26 in 10.0 mi ESE 4.6 mph - N/A   Clear
9:55 PM 13.3 °F 4.2 °F 5.0 °F 70% 30.25 in 10.0 mi ESE 5.8 mph - N/A   Clear
10:15 PM 14.0 °F 5.1 °F 5.2 °F 68% 30.25 in 10.0 mi ESE 5.8 mph - N/A   Clear
10:35 PM 14.0 °F 5.1 °F 5.0 °F 67% 30.25 in 10.0 mi ESE 5.8 mph - N/A   Clear
10:54 PM 13.8 °F 2.7 °F 4.8 °F 67% 30.24 in 10.0 mi ESE 8.1 mph - N/A   Clear
11:15 PM 14.7 °F 4.8 °F 5.4 °F 66% 30.24 in 10.0 mi SE 6.9 mph - N/A   Clear
11:35 PM 14.7 °F 4.8 °F 5.9 °F 68% 30.23 in 10.0 mi SE 6.9 mph - N/A   Clear
11:54 PM 14.7 °F 4.8 °F 6.3 °F 69% 30.23 in 10.0 mi SE 6.9 mph - N/A   Clear